Location: Newark
(54.6833°N, 25.2833°E)
Time: 14:10:33
(UTC+00:00)

Transit 2A - Visible Passes

Search period start: 12 November 2019 00:00
Search period end: 22 November 2019 00:00
Orbit: 601 x 957 km, 66.7° (Epoch: 11 November)

Date Brightness Start Highest point End Pass type
(mag) Time Alt. Az. Time Alt. Az. Time Alt. Az.
12 Nov 7.5 16:00:08 10° NW 16:03:22 19° N 16:05:53 12° NNE visible
12 Nov 7.8 17:44:33 10° NNW 17:46:22 18° NNW 17:46:22 18° NNW visible
13 Nov 7.5 15:25:33 10° WNW 15:28:57 20° NNW 15:32:14 10° NE visible
13 Nov 7.4 17:10:20 10° NW 17:13:03 19° N 17:13:03 19° N visible
14 Nov 7.3 14:50:57 10° WNW 14:54:33 22° NNW 14:58:01 10° NNE visible
14 Nov 7.3 16:36:03 10° NW 16:39:13 18° N 16:39:45 18° NNE visible
14 Nov 8.2 18:19:27 10° NW 18:20:14 14° NNW 18:20:14 14° NNW visible
15 Nov 7.4 16:01:42 10° NW 16:04:47 18° N 16:06:28 15° NNE visible
15 Nov 7.7 17:45:21 10° NNW 17:46:57 19° NNW 17:46:57 19° NNW visible
16 Nov 7.4 15:27:16 10° NW 15:30:22 18° N 15:33:12 11° NE visible
16 Nov 7.3 17:11:14 10° NNW 17:13:41 22° N 17:13:41 22° N visible
17 Nov 7.4 14:52:46 10° NW 14:55:56 18° N 14:59:01 10° NE visible
17 Nov 7.1 16:37:04 10° NNW 16:40:25 22° NNE 16:40:25 22° NNE visible
17 Nov 8.3 18:20:10 10° NW 18:20:55 15° NW 18:20:55 15° NW visible
18 Nov 7.1 16:02:53 10° NW 16:06:11 20° NNE 16:07:12 19° NNE visible
18 Nov 7.6 17:46:03 10° NW 17:47:41 21° NNW 17:47:41 21° NNW visible
19 Nov 7.3 15:28:37 10° NW 15:31:46 19° N 15:33:59 13° NE visible
19 Nov 7.0 17:11:58 10° NW 17:14:28 28° N 17:14:28 28° N visible
20 Nov 7.3 14:54:17 10° NW 14:57:21 18° N 15:00:21 10° NE visible
20 Nov 6.6 16:37:51 10° NNW 16:41:18 30° NNE 16:41:18 30° NNE visible
20 Nov 8.3 18:20:56 10° NW 18:21:47 16° NW 18:21:47 16° NW visible
21 Nov 6.7 16:03:44 10° NNW 16:07:28 26° NNE 16:08:09 25° NE visible
21 Nov 7.5 17:46:46 10° NW 17:48:39 25° NW 17:48:39 25° NW visible
